Previsão horária em Aliwal North

Hoje, 23 Janeiro, Sábado

Tempo Temperatura Precipitação Vento Pressão Humidade
00:00 +26°C° 0 mm 1 m/s 651 mmHg 52%
01:00 +25°C° 0 mm 1 m/s 651 mmHg 53%
02:00 +25°C° 0 mm 2 m/s 650 mmHg 54%
03:00 +24°C° 0 mm 2 m/s 650 mmHg 55%
04:00 +24°C° 0 mm 2 m/s 650 mmHg 55%
05:00 +24°C° 0 mm 2 m/s 650 mmHg 56%
06:00 +25°C° 0 mm 2 m/s 651 mmHg 51%
07:00 +27°C° 0 mm 1 m/s 651 mmHg 47%
08:00 +28°C° 0 mm 1 m/s 651 mmHg 42%
09:00 +30°C° 0 mm 2 m/s 652 mmHg 37%
10:00 +33°C° 0 mm 4 m/s 652 mmHg 33%
11:00 +35°C° 0 mm 5 m/s 652 mmHg 28%
12:00 +35°C° 0 mm 5 m/s 652 mmHg 27%
13:00 +35°C° 0 mm 4 m/s 651 mmHg 26%
14:00 +35°C° 0 mm 4 m/s 652 mmHg 24%
15:00 +35°C° 0 mm 4 m/s 652 mmHg 24%
16:00 +35°C° 0 mm 4 m/s 651 mmHg 23%
17:00 +35°C° 0 mm 4 m/s 651 mmHg 23%
18:00 +34°C° 0 mm 4 m/s 651 mmHg 27%
19:00 +31°C° 0 mm 3 m/s 650 mmHg 30%
20:00 +30°C° 0 mm 2 m/s 650 mmHg 33%
21:00 +29°C° 0 mm 2 m/s 650 mmHg 35%
22:00 +29°C° 0 mm 2 m/s 650 mmHg 37%
23:00 +28°C° 0 mm 2 m/s 651 mmHg 39%

Amanhã, 24 Janeiro, Domingo

Tempo Temperatura Precipitação Vento Pressão Humidade
00:00 +26°C° 0 mm 2 m/s 650 mmHg 55%
01:00 +25°C° 0 mm 2 m/s 649 mmHg 58%
02:00 +25°C° 0 mm 3 m/s 649 mmHg 61%
03:00 +24°C° 0 mm 2 m/s 649 mmHg 63%
04:00 +24°C° 0 mm 1 m/s 649 mmHg 65%
05:00 +23°C° 0 mm 1 m/s 649 mmHg 67%
06:00 +24°C° 0 mm 1 m/s 650 mmHg 61%
07:00 +26°C° 0 mm 1 m/s 650 mmHg 56%
08:00 +27°C° 0 mm 1 m/s 651 mmHg 50%
09:00 +29°C° 0 mm 1 m/s 652 mmHg 45%
10:00 +30°C° 0 mm 1 m/s 652 mmHg 40%
11:00 +32°C° 0 mm 1 m/s 652 mmHg 35%
12:00 +32°C° 0.1 mm 4 m/s 652 mmHg 38%
13:00 +30°C° 0.1 mm 6 m/s 651 mmHg 42%
14:00 +31°C° 0.1 mm 9 m/s 651 mmHg 45%
15:00 +29°C° 0.3 mm 8 m/s 651 mmHg 46%
16:00 +28°C° 0.3 mm 8 m/s 651 mmHg 48%
17:00 +27°C° 0.3 mm 7 m/s 650 mmHg 49%
18:00 +26°C° 0 mm 8 m/s 651 mmHg 53%
19:00 +24°C° 0 mm 8 m/s 651 mmHg 56%
20:00 +23°C° 0 mm 8 m/s 651 mmHg 60%
21:00 +22°C° 0 mm 8 m/s 651 mmHg 62%
22:00 +21°C° 0 mm 7 m/s 651 mmHg 64%
23:00 +20°C° 0 mm 7 m/s 651 mmHg 66%

Depois de amanhã, 25 Janeiro, Segunda-feira

Tempo Temperatura Precipitação Vento Pressão Humidade
00:00 +20°C° 0 mm 6 m/s 651 mmHg 68%
01:00 +19°C° 0 mm 5 m/s 651 mmHg 69%
02:00 +19°C° 0 mm 4 m/s 651 mmHg 70%
03:00 +19°C° 0 mm 4 m/s 651 mmHg 71%
04:00 +19°C° 0 mm 3 m/s 651 mmHg 71%
05:00 +18°C° 0 mm 3 m/s 651 mmHg 72%
06:00 +20°C° 0 mm 2 m/s 651 mmHg 68%
07:00 +21°C° 0 mm 2 m/s 652 mmHg 64%
08:00 +23°C° 0 mm 1 m/s 652 mmHg 59%
09:00 +25°C° 0 mm 2 m/s 652 mmHg 54%
10:00 +27°C° 0 mm 2 m/s 652 mmHg 49%
11:00 +29°C° 0 mm 3 m/s 652 mmHg 44%
12:00 +30°C° 0 mm 4 m/s 652 mmHg 40%
13:00 +32°C° 0 mm 4 m/s 652 mmHg 37%
14:00 +33°C° 0 mm 5 m/s 652 mmHg 33%
15:00 +33°C° 0 mm 5 m/s 652 mmHg 33%
16:00 +33°C° 0 mm 5 m/s 651 mmHg 32%
17:00 +33°C° 0 mm 4 m/s 651 mmHg 32%
18:00 +29°C° 0.2 mm 5 m/s 651 mmHg 45%
19:00 +26°C° 0.2 mm 6 m/s 651 mmHg 57%
20:00 +23°C° 0.2 mm 7 m/s 651 mmHg 70%
21:00 +22°C° 0.3 mm 5 m/s 651 mmHg 72%
22:00 +22°C° 0.3 mm 4 m/s 652 mmHg 74%
23:00 +21°C° 0.3 mm 3 m/s 652 mmHg 75%

26 Janeiro, Terça-feira

Tempo Temperatura Precipitação Vento Pressão Humidade
00:00 +21°C° 0.3 mm 2 m/s 652 mmHg 76%
01:00 +22°C° 0.3 mm 1 m/s 652 mmHg 76%
02:00 +22°C° 0.3 mm 1 m/s 652 mmHg 77%
03:00 +22°C° 0.2 mm 1 m/s 652 mmHg 77%
04:00 +20°C° 0.2 mm 2 m/s 652 mmHg 78%
05:00 +20°C° 0.2 mm 2 m/s 652 mmHg 79%
06:00 +21°C° 0.1 mm 3 m/s 652 mmHg 74%
07:00 +22°C° 0.1 mm 3 m/s 653 mmHg 69%
08:00 +23°C° 0.1 mm 4 m/s 653 mmHg 64%
09:00 +26°C° 0 mm 4 m/s 653 mmHg 59%
10:00 +27°C° 0 mm 5 m/s 653 mmHg 53%
11:00 +29°C° 0 mm 5 m/s 653 mmHg 48%
12:00 +29°C° 0.1 mm 5 m/s 653 mmHg 46%
13:00 +30°C° 0.1 mm 5 m/s 653 mmHg 44%
14:00 +30°C° 0.1 mm 5 m/s 652 mmHg 42%
15:00 +29°C° 0.1 mm 5 m/s 652 mmHg 45%
16:00 +28°C° 0.1 mm 4 m/s 651 mmHg 47%
17:00 +28°C° 0.1 mm 4 m/s 651 mmHg 49%
18:00 +27°C° 0.1 mm 4 m/s 651 mmHg 52%
19:00 +26°C° 0.1 mm 3 m/s 651 mmHg 56%
20:00 +25°C° 0.1 mm 3 m/s 651 mmHg 59%
21:00 +24°C° 1 mm 2 m/s 651 mmHg 63%
22:00 +24°C° 1 mm 2 m/s 651 mmHg 66%
23:00 +23°C° 1 mm 1 m/s 651 mmHg 70%

27 Janeiro, Quarta-feira

Tempo Temperatura Precipitação Vento Pressão Humidade
00:00 +23°C° 1.4 mm 1 m/s 651 mmHg 73%
01:00 +22°C° 1.4 mm 1 m/s 650 mmHg 76%
02:00 +20°C° 1.4 mm 0 m/s 650 mmHg 78%
03:00 +22°C° 1 mm 1 m/s 650 mmHg 80%
04:00 +22°C° 1 mm 1 m/s 650 mmHg 81%
05:00 +21°C° 1 mm 2 m/s 650 mmHg 83%
06:00 +21°C° 0.6 mm 3 m/s 650 mmHg 80%
07:00 +22°C° 0.6 mm 5 m/s 650 mmHg 77%
08:00 +22°C° 0.6 mm 6 m/s 651 mmHg 74%
09:00 +23°C° 0.6 mm 5 m/s 650 mmHg 72%
10:00 +23°C° 0.6 mm 5 m/s 650 mmHg 69%
11:00 +25°C° 0.6 mm 4 m/s 650 mmHg 67%
12:00 +26°C° 0.3 mm 5 m/s 650 mmHg 60%
13:00 +28°C° 0.3 mm 6 m/s 650 mmHg 52%
14:00 +30°C° 0.3 mm 6 m/s 650 mmHg 45%
15:00 +29°C° 0.2 mm 6 m/s 650 mmHg 49%
16:00 +28°C° 0.2 mm 5 m/s 649 mmHg 53%
17:00 +27°C° 0.2 mm 5 m/s 648 mmHg 57%
18:00 +26°C° 0.4 mm 4 m/s 648 mmHg 62%
19:00 +25°C° 0.4 mm 2 m/s 648 mmHg 68%
20:00 +24°C° 0.4 mm 1 m/s 648 mmHg 74%
21:00 +23°C° 1.1 mm 2 m/s 648 mmHg 76%
22:00 +23°C° 1.1 mm 2 m/s 648 mmHg 79%
23:00 +21°C° 1.1 mm 3 m/s 648 mmHg 82%

28 Janeiro, Quinta-feira

Tempo Temperatura Precipitação Vento Pressão Humidade
00:00 +21°C° 0.5 mm 3 m/s 648 mmHg 83%
01:00 +20°C° 0.5 mm 3 m/s 648 mmHg 84%
02:00 +19°C° 0.5 mm 2 m/s 647 mmHg 85%
03:00 +19°C° 0.4 mm 2 m/s 648 mmHg 86%
04:00 +19°C° 0.4 mm 2 m/s 648 mmHg 86%
05:00 +19°C° 0.4 mm 2 m/s 648 mmHg 87%
06:00 +19°C° 0.4 mm 2 m/s 648 mmHg 87%
07:00 +19°C° 0.4 mm 2 m/s 649 mmHg 88%
08:00 +20°C° 0.4 mm 1 m/s 649 mmHg 88%
09:00 +19°C° 0.1 mm 2 m/s 649 mmHg 84%
10:00 +20°C° 0.1 mm 3 m/s 649 mmHg 80%
11:00 +21°C° 0.1 mm 3 m/s 650 mmHg 76%
12:00 +20°C° 0.4 mm 4 m/s 649 mmHg 78%
13:00 +19°C° 0.4 mm 5 m/s 649 mmHg 80%
14:00 +19°C° 0.4 mm 5 m/s 649 mmHg 81%
15:00 +17°C° 0.3 mm 6 m/s 649 mmHg 82%
16:00 +17°C° 0.3 mm 6 m/s 649 mmHg 82%
17:00 +16°C° 0.3 mm 6 m/s 649 mmHg 83%
18:00 +16°C° 0.6 mm 6 m/s 649 mmHg 83%
19:00 +15°C° 0.6 mm 6 m/s 649 mmHg 84%
20:00 +15°C° 0.6 mm 7 m/s 649 mmHg 84%
Mostrar mais

Necessitamos do seu Consentimento

A Meteoprog e os seus Fornecedores de Serviços podem armazenar e aceder a dados pessoais como cookies, identificadores do dispositivo ou outras tecnologias semelhantes existentes no seu dispositivo e processar estes dados para personalizar conteúdos e anúncios, assim como funcionalidades nas redes sociais e análise de tráfego.

  • Armazenar e/ou aceder a informações no seu dispositivo

    Os cookies, identificadores do dispositivo ou outras informações podem ser armazenados ou acedidos no seu dispositivo, para os fins acima indicados.

  • Anúncios e conteúdos personalizados, medição de anúncios e conteúdos, dados sobre o público-alvo e desenvolvimento de produtos

    Os anúncios e os conteúdos podem ser personalizados com base num perfil. Podem ser adicionados dados adicionais para uma maior personalização dos anúncios e dos conteúdos. A eficácia dos anúncios e dos conteúdos pode ser medida. Podem ser obtidas informações sobre o público que visualizou os anúncios e os conteúdos. Estes dados podem ser usados para desenvolver ou melhorar sistemas, softwares ou a experiência do utilizador.

Ao clicar em "Eu concordo”, permitirá o uso de cookies, identificadores do dispositivo e web beacons mencionados ou outras tecnologias semelhantes. As configurações do navegador do seu dispositivo podem ser alteradas.

Para certos fins, podem ser invocados interesses legítimos ao invés de consentimento. Pode ler mais informação sobre este assunto na nossa Política de Privacidade e Cookies.